Estatísticas do Tribal Wars: brp3: Ennoblements

As conquistas dispostas nesta página são ao VIVO (quando uma aldeia é conquistada, será mostrada). Significa que ao serem mostradas aqui, podem não ser mostradas noutras partes do site durante até 1 hora.

AldeiaPontosProprietário antigoNovo proprietárioData/Tempo
Aldeia de bárbaros (195|383) K319,363FeelipeJuniior [M4d!CB]2019-01-21 - 22:41:43
Aldeia de bárbaros (285|817) K821,843canom [Mad.CB]canom [Mad.CB]2019-01-21 - 22:38:53
Aldeia de bárbaros (285|817) K821,843PorQueN. [EBF]canom [Mad.CB]2019-01-21 - 22:38:52
Aldeia de bárbaros (844|343) K381,251cocitoviisk [RLR]2019-01-21 - 22:38:11
091. Conservatism (452|286) K248,934Leozinho512 [-NOT-]wilson rei [K!LL]2019-01-21 - 22:37:46
MesTre DIMITri (400|759) K7412,154LCPRADO jose e Grazi [KILL]2019-01-21 - 22:36:42
Aldeia de bárbaros (239|735) K728,497gabriel304 [(AR)]2019-01-21 - 22:36:24
040 (302|694) K639,993Cezaao ercabral [$NOT$]2019-01-21 - 22:35:52
Aldeia de bárbaros (290|819) K821,448Alessandro Fernando [RLR]2019-01-21 - 22:33:43
009 - RedBullWinner (396|311) K3310,342Negrin111 [K!LL]Negrin111 [K!LL]2019-01-21 - 22:33:13
009 - RedBullWinner (396|311) K3310,342RedBullWinner [Mad.CB]Negrin111 [K!LL]2019-01-21 - 22:33:13
Aldeia de bárbaros (810|736) K781,304*-*BS*-* [AQUI]2019-01-21 - 22:31:46
[113] Deus é Forte (274|655) K6211,404vberaldo [*REV*]THOR01 [KILL]2019-01-21 - 22:31:30
Aldeia de bárbaros (189|700) K711,378tanga 2019-01-21 - 22:31:16
Aldeia de bárbaros (179|699) K613,512tanga 2019-01-21 - 22:30:02
SARAH VALENTE 57 (744|219) K279,346edkorban dogwar [*REV*]2019-01-21 - 22:29:16
Aldeia de bárbaros (691|736) K7610,495chid [ATW!]chid [ATW!]2019-01-21 - 22:29:09
Aldeia de bárbaros (435|852) K8410,953Harumio [RLX]2019-01-21 - 22:28:47
[074] Deus é Forte (266|680) K6210,008vberaldo [*REV*]THOR01 [KILL]2019-01-21 - 22:28:46
Aldeia de bárbaros (691|736) K7610,495chid [ATW!]2019-01-21 - 22:28:44
Aldeia de bárbaros (685|169) K161,692ladronete [-BTT-]2019-01-21 - 22:28:40
Aldeia de bárbaros (315|830) K833,023mavonts [(AR)]mavonts [(AR)]2019-01-21 - 22:28:14
[102] Império Redbull (278|675) K6211,898RedBullWinner [Mad.CB]ratao157 [K!LL]2019-01-21 - 22:28:14
HERO-161 (610|251) K2611,439miguel 63 [$NOT$]Gagão [NOT]2019-01-21 - 22:25:03
Aldeia de bárbaros (589|822) K858,280vivi2013 [RLX]2019-01-21 - 22:24:38
Aldeia de bárbaros (665|177) K164,816franc33 2019-01-21 - 22:22:19
02 VAI apanhar CÕCÕ (484|609) K648,314Nem santos [K!LL]Nem santos [K!LL]2019-01-21 - 22:17:58
Aldeia de bárbaros (198|266) K212,501wellcome [virus]2019-01-21 - 22:16:55
ZAFRON (378|716) K7311,040canom [Mad.CB]Wlad Castres [K!LL]2019-01-21 - 22:15:17
julio (559|628) K6511,419julionardes [*REV*]mattosnx [KILL]2019-01-21 - 22:15:11
Aldeia de bárbaros (746|283) K277,398Impalas II vodax1 [$NOT$]2019-01-21 - 22:13:48
Aldeia de bárbaros (586|126) K152,792wars of world [{RRs}]2019-01-21 - 22:13:45
Aldeia de bárbaros (439|144) K149,392Jose Paulo Coelho [RL]Jose Paulo Coelho [RL]2019-01-21 - 22:13:14
Aldeia de bárbaros (439|144) K149,392Jose Paulo Coelho [RL]2019-01-21 - 22:12:56
KF NV-HM/NO2 @@@F.A 22-17.NOB (188|625) K619,193KaduFonseca arcanjobiel [ATW!]2019-01-21 - 22:11:37
ELITE (520|280) K259,162bebequieto [$NOT$]B-Sinistro [KILL]2019-01-21 - 22:11:30
SOU DE NADA (259|751) K725,550PorQueN. [EBF]SOU DE NADA [(AR)]2019-01-21 - 22:11:03
Fragosopolis 253 (303|242) K239,717Apfragoso [M4d!CB]heri lord [- 51 -]2019-01-21 - 22:07:16
Aldeia do julio (732|669) K6710,398julionardes [*REV*]hachiman [K!LL]2019-01-21 - 22:06:24
77-1 (735|714) K779,389satgomes [AR*]satgomes [AR*]2019-01-21 - 22:06:07
77-1 (735|714) K779,389LAGARTAUR [ATW*]satgomes [AR*]2019-01-21 - 22:06:07
Aldeia de bárbaros (570|886) K85977Reicoveiro [RL]2019-01-21 - 22:05:44
CARAÍ A2 (392|590) K5310,436nego show a vingança [RLC]pixua1 [K!LL]2019-01-21 - 22:01:55
Aldeia de bárbaros (553|254) K2512,154o retorno da morte [NOT]2019-01-21 - 22:01:46
Aldeia de bárbaros (535|879) K85864roberxmx [RLAC]2019-01-21 - 22:01:12
Aldeia de bárbaros (752|625) K678,598JSenra [AR*]2019-01-21 - 22:01:11
Aldeia de bárbaros (198|261) K211,165Freguesia [virus]2019-01-21 - 22:01:00
Aldeia de bárbaros (859|360) K383,088Ed-Dk [ATW 1]2019-01-21 - 22:00:08
Eu sou o J U L I O (742|673) K6710,796julionardes [*REV*]hachiman [K!LL]2019-01-21 - 21:57:12
xxx (395|783) K736,315spiec [ATW*]Savalles [K|LL]2019-01-21 - 21:56:18
Aldeia de bárbaros (822|611) K6810,312GringoDoMal [ATW 1]2019-01-21 - 21:56:08
xxx (393|784) K737,543spiec [ATW*]Savalles [K|LL]2019-01-21 - 21:54:33
1Kilo de Tropas #040 (564|293) K259,341miguel 63 [$NOT$]luizphilipe2 [KILL]2019-01-21 - 21:51:46
Aldeia de bárbaros (791|624) K6711,662hnrq [-ACA-]2019-01-21 - 21:51:16
Aldeia de bárbaros (359|143) K132,605fulcanelli [Mad.CB]2019-01-21 - 21:50:41
#014 (671|232) K2611,898kratusnegao [-NOT-]Senhora Estranho [K|LL]2019-01-21 - 21:50:29
Fragosopolis 227 (287|187) K126,827Apfragoso [M4d!CB]RedbDark [- 51 -]2019-01-21 - 21:49:55
[082] Deus é Fiel (259|683) K629,953vberaldo [*REV*]THOR01 [KILL]2019-01-21 - 21:49:06
Aldeia de bárbaros (857|618) K681,278JSenra [AR*]2019-01-21 - 21:48:45
Aldeia de bárbaros (509|895) K85809Rolks [24hrs!]2019-01-21 - 21:48:41
Aldeia de bárbaros (461|174) K149,945danniciza [-NOT-]2019-01-21 - 21:48:24
Aldeia de bárbaros (741|208) K272,096Dalcim2010 [RL]2019-01-21 - 21:46:17
snake dog 032 (385|830) K834,252Snake Dog [(AR)]king sse [RLX]2019-01-21 - 21:45:41
Aldeia de bárbaros (806|373) K3810,892thutty [PPL]2019-01-21 - 21:45:30
Aldeia de bárbaros (705|705) K779,728augustofjv 2019-01-21 - 21:44:47
S.10 A BRIGADA LOBO (370|805) K839,648Baskiatblues [Mad.CB]Rafa Rail [K!LL]2019-01-21 - 21:42:38
#397# (645|688) K6610,367aaandrig [PPL]aaandrig [PPL]2019-01-21 - 21:42:33
#397# (645|688) K6610,367aaandrig [PPL]aaandrig [PPL]2019-01-21 - 21:42:33
#397# (645|688) K6610,367aaandrig [PPL]aaandrig [PPL]2019-01-21 - 21:42:32
#397# (645|688) K6610,367VICTOR LEITIM [K|LL]aaandrig [PPL]2019-01-21 - 21:42:32
#017 (689|214) K2611,294kratusnegao [-NOT-]Selesnia B [KILL]2019-01-21 - 21:42:04
Aldeia de bárbaros (194|697) K6110,194tanga 2019-01-21 - 21:40:41
Aldeia de bárbaros (712|822) K873,038Matrix Reloaded [*REV*³]2019-01-21 - 21:38:22
Aldeia de bárbaros (795|289) K279,053vodax1 [$NOT$]2019-01-21 - 21:36:26
Aldeia de bárbaros (658|838) K861,486loko de campinas [M4d!CB]2019-01-21 - 21:36:13
080 (301|700) K7311,554Cleber Taborda [V_7]ercabral [$NOT$]2019-01-21 - 21:36:02
Aldeia de bárbaros (844|342) K382,308cocitoviisk [RLR]luciusmaximo 2019-01-21 - 21:35:30
Bec 3 king (608|740) K7610,538garotinho57@hotmail.com [ATW!]fusofr-Insanus [KILL]2019-01-21 - 21:34:37
W=K04=CAÇAPAVA (161|348) K313,938Lfelype [V_N_T]REI*ARAGORN* [*REV*]2019-01-21 - 21:32:34
Aldeia de bárbaros (261|791) K722,708GARRA NEGRA [NOT]GARRA NEGRA [NOT]2019-01-21 - 21:32:11
Aldeia de bárbaros (261|791) K722,708GARRA NEGRA [NOT]2019-01-21 - 21:31:51
Aldeia de bárbaros (631|776) K769,095rapschinski [*REV*]fusofr-Insanus [KILL]2019-01-21 - 21:31:32
Michigan.. (453|380) K349,472Wyler [ATW!]rodrigomu3 [KILL]2019-01-21 - 21:30:19
Muralha 13 (143|359) K311,544Sergio lisboa [PNO³]2019-01-21 - 21:28:16
F-04 Aldeia de Pablo Escobar (644|474) K4611,874RJDS [ATW!]Leonardo rocha [K!LL]2019-01-21 - 21:28:05
BDM (767|440) K4710,465Kaly Paker [*REV*]totoin22 [K|LL]2019-01-21 - 21:25:19
[026] Deus é Forte (274|650) K6211,053vberaldo [*REV*]THOR01 [KILL]2019-01-21 - 21:21:35
Aldeia de bárbaros (797|641) K674,790hnrq [-ACA-]2019-01-21 - 21:18:15
Aldeia de bárbaros (582|123) K151,190pcwantil [{RRs}]2019-01-21 - 21:15:33
Milwaukee (383|805) K8311,614Baskiatblues [Mad.CB]Rafa Rail [K!LL]2019-01-21 - 21:15:02
Aldeia de bárbaros (477|117) K14601pedro3000 goliasvito 2019-01-21 - 21:14:28
Aldeia de bárbaros (285|200) K227,426JOLEVI [Mad.CB]2019-01-21 - 21:09:25
141 (735|712) K779,887LAGARTAUR [ATW*]satgomes [AR*]2019-01-21 - 21:06:29
Aldeia de bárbaros (654|751) K768,299ICESHIDO [ATW]2019-01-21 - 21:03:26
Aldeia de bárbaros (215|700) K725,935Forgiarini [RL]2019-01-21 - 21:03:16
HERO-069 (561|293) K259,035miguel 63 [$NOT$]luizphilipe2 [KILL]2019-01-21 - 21:01:31
bárbaros (243|697) K629,745ANDERSONZAO O RETORNO [ATW*]marquim393 [K!LL]2019-01-21 - 21:01:09
FA - 250 (827|412) K4811,910MarretaMK [*REV*]FlyerAurora [K|LL]2019-01-21 - 21:01:04
Aldeia de bárbaros (698|162) K161,916Manwe 2019-01-21 - 21:00:43
Aldeia de bárbaros (628|204) K2612,196odizuco [NOT]2019-01-21 - 21:00:18
Aldeia de bárbaros (844|342) K382,308jaimerson [ATW 1]cocitoviisk [RLR]2019-01-21 - 21:00:14
ELITE (527|285) K259,200bebequieto [$NOT$]leo letros [K!LL]2019-01-21 - 20:59:14
Aldeia de bárbaros (251|805) K82591Hora da Virada 2019-01-21 - 20:57:58
#00000# (633|486) K4611,874jef jan [ATW]cleber 25 [KILL]2019-01-21 - 20:56:33
snake dog 029 (380|835) K835,179Snake Dog [(AR)]Lusitano [RLX]2019-01-21 - 20:55:08
Aldeia de bárbaros (852|563) K586,898hugo69m123 João Luis [Thanos]2019-01-21 - 20:54:58
Imperium (392|621) K639,917Mr Gollum Senhor TENTACULO [K|LL]2019-01-21 - 20:54:50
0009 (802|275) K283,167Imperio vikings vodax1 [$NOT$]2019-01-21 - 20:54:48
Berlim (580|725) K7511,607Nem santos [K!LL]Nem santos [K!LL]2019-01-21 - 20:54:14
Ojihbhvycf rxrxuvibib (244|363) K3210,978edgardbueno [Mad.CB]mylys02 [K!LL]2019-01-21 - 20:53:20
Aldeia de bárbaros (206|702) K724,718Forgiarini [RL]2019-01-21 - 20:51:53
Albufeira (160|473) K4111,874natipoa KiLL4FuuN [AR*]2019-01-21 - 20:50:57
Aldeia Z1 (739|576) K574,751lordhalle [*REV*]mysteriousdark [K!LL]2019-01-21 - 20:50:45
JUARA 98 (699|241) K2610,969WALTER JEFFERSON [-NOT-]2019-01-21 - 20:49:38
Aldeia de bárbaros (860|617) K683,026IRMÃOSKEHDI [-ACA-]2019-01-21 - 20:49:36
Aldeia de bárbaros (809|275) K283,418XaKBuM classics [ATW 1]2019-01-21 - 20:47:27
66-GISBO (746|209) K271,741aseslan [MU]2019-01-21 - 20:46:36
VIVID (372|700) K7312,154canom [Mad.CB]Wlad Castres [K!LL]2019-01-21 - 20:44:24

2019-01-21 22:42:08 ART

Site by Clash Rank - Report error - Privacy policy - 2.1 272